Location: Geçitköy
(36.7327°N, 29.8010°E)
Time: 05:18:22
(UTC+00:00)

USA 267 - Pass Details

Date: 12 January 2026
Orbit: 1101 x 1107 km, 123.0° (Epoch: 10 January)

Event Time Altitude Azimuth Distance (km) Brightness Sun altitude
Exits shadow 16:58:51 37° 54° (NE) 1,650 3.7 -22.3°
Maximum altitude 16:59:51 39° 34° (NNE) 1,595 3.7 -22.5°
Drops below altitude 10° 17:05:48 10° 328° (NNW) 2,963 5.8 -23.7°
Sets 17:08:27 0° 321° (NW) 3,922 6.5 -24.2°
